TimeEST,TemperatureF,Dew PointF,Humidity,Sea Level PressureIn,VisibilityMPH,Wind Direction,Wind SpeedMPH,Gust SpeedMPH,PrecipitationIn,Events,Conditions,WindDirDegrees,DateUTC
12:15 AM,21.2,17.6,86,30.10,10.0,WSW,5.8,-,N/A,,Clear,250,2011-12-27 05:15:00
12:55 AM,23.0,19.4,86,30.08,10.0,West,4.6,-,N/A,,Clear,270,2011-12-27 05:55:00
1:15 AM,23.0,17.6,80,30.08,10.0,West,4.6,-,N/A,,Clear,270,2011-12-27 06:15:00
1:35 AM,21.2,17.6,86,30.07,10.0,WSW,3.5,-,N/A,,Clear,250,2011-12-27 06:35:00
1:55 AM,21.2,19.4,93,30.07,10.0,West,3.5,-,N/A,,Clear,280,2011-12-27 06:55:00
2:15 AM,23.0,19.4,86,30.07,10.0,West,5.8,-,N/A,,Clear,260,2011-12-27 07:15:00
2:35 AM,23.0,19.4,86,30.06,10.0,West,4.6,-,N/A,,Clear,260,2011-12-27 07:35:00
3:35 AM,23.0,17.6,80,30.06,10.0,WSW,8.1,-,N/A,,Clear,250,2011-12-27 08:35:00
3:55 AM,24.8,17.6,74,30.05,10.0,West,4.6,-,N/A,,Clear,260,2011-12-27 08:55:00
4:15 AM,23.0,17.6,80,30.04,10.0,West,5.8,-,N/A,,Clear,260,2011-12-27 09:15:00
4:35 AM,23.0,17.6,80,30.04,10.0,WSW,4.6,-,N/A,,Clear,250,2011-12-27 09:35:00
4:55 AM,21.2,17.6,86,30.04,10.0,WSW,3.5,-,N/A,,Clear,250,2011-12-27 09:55:00
5:15 AM,21.2,19.4,93,30.04,10.0,SW,4.6,-,N/A,,Clear,230,2011-12-27 10:15:00
5:55 AM,23.0,19.4,86,30.02,10.0,West,4.6,-,N/A,,Clear,260,2011-12-27 10:55:00
6:15 AM,23.0,19.4,86,30.01,10.0,West,5.8,-,N/A,,Clear,260,2011-12-27 11:15:00
6:35 AM,23.0,19.4,86,30.00,10.0,West,3.5,-,N/A,,Clear,270,2011-12-27 11:35:00
7:35 AM,21.2,19.4,93,29.98,10.0,WSW,5.8,-,N/A,,Clear,250,2011-12-27 12:35:00
8:15 AM,23.0,19.4,86,29.99,10.0,WSW,3.5,-,N/A,,Clear,240,2011-12-27 13:15:00
8:35 AM,24.8,21.2,86,29.99,10.0,West,4.6,-,N/A,,Clear,260,2011-12-27 13:35:00
9:15 AM,28.4,21.2,74,29.98,10.0,West,4.6,-,N/A,,Clear,260,2011-12-27 14:15:00
9:35 AM,28.4,21.2,74,29.97,10.0,West,4.6,-,N/A,,Clear,260,2011-12-27 14:35:00
9:55 AM,30.2,23.0,75,29.97,10.0,Calm,Calm,-,N/A,,Clear,0,2011-12-27 14:55:00
10:35 AM,30.2,23.0,75,29.96,10.0,West,5.8,-,N/A,,Clear,280,2011-12-27 15:35:00
10:55 AM,30.2,24.8,80,29.94,10.0,West,3.5,-,N/A,,Clear,270,2011-12-27 15:55:00
11:15 AM,32.0,24.8,75,29.92,10.0,WNW,3.5,-,N/A,,Clear,290,2011-12-27 16:15:00
11:35 AM,33.8,24.8,70,29.91,10.0,Calm,Calm,-,N/A,,Partly Cloudy,0,2011-12-27 16:35:00
11:55 AM,32.0,24.8,75,29.89,10.0,Calm,Calm,-,N/A,,Clear,0,2011-12-27 16:55:00
12:15 PM,33.8,24.8,70,29.88,10.0,Calm,Calm,-,N/A,,Clear,0,2011-12-27 17:15:00
12:35 PM,33.8,24.8,70,29.88,10.0,West,3.5,-,N/A,,Partly Cloudy,260,2011-12-27 17:35:00
1:15 PM,33.8,24.8,70,29.86,10.0,Calm,Calm,-,N/A,,Clear,0,2011-12-27 18:15:00
1:35 PM,33.8,24.8,70,29.84,10.0,Calm,Calm,-,N/A,,Clear,0,2011-12-27 18:35:00
1:55 PM,33.8,26.6,75,29.84,10.0,Calm,Calm,-,N/A,,Partly Cloudy,0,2011-12-27 18:55:00
2:15 PM,33.8,26.6,75,29.84,10.0,Calm,Calm,-,N/A,,Partly Cloudy,0,2011-12-27 19:15:00
2:35 PM,33.8,26.6,75,29.83,10.0,Calm,Calm,-,N/A,,Clear,0,2011-12-27 19:35:00
2:55 PM,35.6,26.6,70,29.83,10.0,Calm,Calm,-,N/A,,Clear,0,2011-12-27 19:55:00
3:15 PM,35.6,26.6,70,29.82,10.0,Calm,Calm,-,N/A,,Clear,0,2011-12-27 20:15:00
3:55 PM,33.8,26.6,75,29.82,10.0,Calm,Calm,-,N/A,,Overcast,0,2011-12-27 20:55:00
4:15 PM,35.6,26.6,70,29.79,10.0,Calm,Calm,-,N/A,,Overcast,0,2011-12-27 21:15:00
4:35 PM,33.8,28.4,81,29.78,10.0,Calm,Calm,-,N/A,,Overcast,0,2011-12-27 21:35:00
4:55 PM,33.8,28.4,81,29.77,10.0,Calm,Calm,-,N/A,,Mostly Cloudy,0,2011-12-27 21:55:00
5:15 PM,33.8,28.4,81,29.76,10.0,Calm,Calm,-,N/A,,Overcast,0,2011-12-27 22:15:00
5:35 PM,33.8,30.2,87,29.76,7.0,Calm,Calm,-,N/A,,Overcast,0,2011-12-27 22:35:00
6:15 PM,33.8,30.2,87,29.73,4.0,NNE,3.5,-,N/A,,Overcast,20,2011-12-27 23:15:00
6:55 PM,35.6,32.0,87,29.72,3.0,ENE,4.6,-,N/A,,Overcast,70,2011-12-27 23:55:00
7:15 PM,35.6,33.8,93,29.70,3.0,NE,10.4,-,N/A,,Overcast,40,2011-12-28 00:15:00
7:35 PM,35.6,33.8,93,29.68,3.0,NE,13.8,20.7,N/A,,Overcast,50,2011-12-28 00:35:00
7:55 PM,35.6,33.8,93,29.64,3.0,NE,15.0,-,0.12,,Overcast,40,2011-12-28 00:55:00
8:15 PM,35.6,33.8,93,29.60,5.0,NNE,12.7,-,0.03,,Overcast,20,2011-12-28 01:15:00
8:35 PM,37.4,35.6,93,29.56,8.0,North,11.5,-,0.05,,Overcast,10,2011-12-28 01:35:00
9:15 PM,42.8,41.0,93,29.48,10.0,East,18.4,25.3,N/A,,Overcast,90,2011-12-28 02:15:00
9:35 PM,44.6,42.8,93,29.45,10.0,ESE,12.7,23.0,N/A,,Overcast,120,2011-12-28 02:35:00
9:55 PM,44.6,42.8,93,29.42,5.0,ESE,11.5,21.9,N/A,,Overcast,120,2011-12-28 02:55:00
10:15 PM,46.4,42.8,87,29.38,5.0,ESE,18.4,24.2,N/A,,Overcast,120,2011-12-28 03:15:00
10:35 PM,46.4,42.8,87,29.36,6.0,ESE,10.4,26.5,N/A,,Overcast,120,2011-12-28 03:35:00
10:55 PM,48.2,44.6,87,29.32,9.0,SE,15.0,27.6,0.03,,Overcast,130,2011-12-28 03:55:00
11:15 PM,48.2,44.6,87,29.30,10.0,SE,16.1,29.9,N/A,,Overcast,130,2011-12-28 04:15:00
11:35 PM,48.2,44.6,87,29.28,9.0,SSE,13.8,24.2,N/A,,Overcast,150,2011-12-28 04:35:00
11:55 PM,50.0,46.4,87,29.25,9.0,SE,18.4,27.6,0.02,,Overcast,140,2011-12-28 04:55:00